Preview of NWS' New Version of Forecast
This preview is not operational and should not be used for support decisions.
Latest weather observations around

Gadsden, Gadsden Municipal Airport (KGAD)

Using International System of Units (Switch to English Units)
Date/ Time (CST) Wind (kph) Vis. (km) Weather Sky Cond. Temp (°C) Rel. Humidity Wind Chill (°C) Heat Index (°C) Pressure Precip. (cm)
Air Dwpt 6 hour Altimeter (hPa) Sea level (hPa) 1 hr 3 hr 6 hr
Max Min
Jan 21 21:56 ENE 15 16.09 Clear CLR -1 -8     58% -5   1029.5 1030.4      
Jan 21 20:56 ENE 13 16.09 Clear CLR 0 -8     56% -4   1029.5 1030.5      
Jan 21 19:56 ENE 15 16.09 Clear CLR 0 -8     56% -4   1029.5 1030.4      
Jan 21 18:56 ENE 8 16.09 Clear CLR -1 -7     61% -3   1029.5 1030.4      
Jan 21 17:56 NNE 5 16.09 Clear CLR 1 -11     41% -1   1029.8 1030.7      
Jan 21 16:56 ENE 11 16.09 Clear CLR 2 -11     37% -1   1029.8 1030.9      
Jan 21 15:56 E 15 16.09 Clear CLR 4 -14     25% 1   1029.8 1031      
Jan 21 14:56 E 15 16.09 Clear CLR 5 -13     26% 2   1029.5 1030.5      
Jan 21 13:56 8 16.09 Clear CLR 5 -11     31% 3   1030.1 1031.2      
Jan 21 12:56 5 16.09 Clear CLR 3 -12     34% 1   1030.5 1031.6      
Jan 21 11:56 NE 11 16.09 Clear CLR 1 -12     38% -2   1032.2 1033      
Jan 21 10:56 E 9 16.09 Clear CLR 0 -10     47% -3   1032.9 1034.1      
Jan 21 09:56 E 9 16.09 Clear CLR -1 -10     51% -4   1032.9 1033.8      
Jan 21 08:56 ENE 15 16.09 Clear CLR -3 -10     58% -8   1032.2 1033.3      
Jan 21 07:56 N 17 16.09 Clear CLR -4 -9     66% -10   1031.5 1032.6      
Jan 21 06:56 NNE 11 16.09 Clear CLR -5 -9     71% -10   1030.5 1031.6      
Jan 21 05:56 NNE 18 16.09 Clear CLR -4 -10     65% -10   1028.8 1029.9      
Jan 21 04:56 NNE 15 16.09 Clear CLR -4 -10     65% -10   1027.8 1028.9      
Jan 21 03:56 N 9 16.09 Clear CLR -4 -7     84% -8   1027.1 1028.1      
Jan 21 02:56 N 9 16.09 Clear CLR -4 -7     81% -8   1027.4 1028.5      
Jan 21 01:56 N 9 16.09 Clear CLR -4 -7     81% -8   1027.1 1028.1      
Jan 21 00:56 N 17 16.09 Clear CLR -3 -7     77% -9   1026.8 1027.7      
Jan 20 23:56 N 15 16.09 Clear CLR -3 -7     75% -8   1026.4 1027.5      
Jan 20 22:56 N 17 16.09 Clear CLR -3 -6     78% -8   1026.4 1027.3      
Jan 20 21:56 N 15 16.09 Clear CLR -2 -5     81% -7   1026.1 1026.9      
Jan 20 20:56 NNW 9 16.09 Clear CLR -2 -5     81% -6   1025.7 1026.8      
Jan 20 19:56 N 8 16.09 Clear CLR -2 -5     81% -5   1025.4 1026.3      
Jan 20 18:56 N 8 16.09 Clear CLR -2 -5     78% -5   1025.1 1026.1      
Jan 20 17:56 NNW 11 16.09 Clear CLR -1 -5     75% -5   1024.4 1025.5      
Jan 20 16:56 NW 13 16.09 Clear CLR 0 -6     66% -4   1023.4 1024.1      
Jan 20 15:56 NW 17 16.09 Clear CLR 1 -6     59% -3   1022.7 1023.4      
Jan 20 14:56 NNW 26 16.09 Mostly Clear FEW029 2 -5     59% -3   1021.7 1022.6      
Jan 20 14:47 WNW 21 16.09 Mostly Clear FEW029 2 -5     60% -3   1022        
Jan 20 13:56 NW 17 16.09 Cloudy OVC029 1 -4     67% -3   1021.3 1022.3      
Jan 20 12:56 NW 22 16.09 Cloudy OVC027 2 -3     69% -3   1020.3 1021.3      
Jan 20 10:56 NNW 33 16.09 Mostly Cloudy and Windy BKN029 1 -4     67% -5   1021.7 1022.4      
Jan 20 09:56 NNW 21 16.09 Cloudy OVC027 1 -4     67% -4   1021 1021.6      
Jan 20 08:56 NW 30 16.09 Cloudy OVC023 0 -3     78% -6   1020 1020.7      
Jan 20 07:56 NNW 21 16.09 Cloudy OVC021 1 -2     82% -4   1018 1018.6      
Jan 20 06:56 NW 24 16.09 Cloudy OVC021 1 -2     82% -5   1016.9 1017.4      
Jan 20 05:56 NW 21 16.09 Cloudy OVC019 1 -2     85% -5   1015.9 1016.5      
Jan 20 04:56 NW 18 16.09 Cloudy OVC025 1 -3     78% -4   1014.2 1014.7      
Jan 20 03:56 WNW 26 16.09 Cloudy OVC025 1 -3     75% -5   1013.2 1013.8      
Jan 20 02:56 NW 17 16.09 Cloudy OVC023 1 -2     79% -3   1012.9 1013.2      
Jan 20 01:56 NW 32 16.09 Cloudy and Windy OVC025 1 -3     75% -5   1011.5 1011.8      
Jan 20 00:56 WNW 30 16.09 Cloudy OVC019 2 -1     85% -4   1010.5 1010.7      
Jan 19 23:56   16.09 Cloudy OVC019 2 1     89%     1009.5 1009.7     0
Jan 19 22:56 W 26 16.09 Light Rain BKN019 OVC024 3 2     89% -2   1008.5 1009 0    
Jan 19 21:56 W 26 16.09 Cloudy OVC020 6 4     89% 1   1006.8 1007.1      
Jan 19 21:30 W 28 16.09 Cloudy OVC016 7 6     93% 3   1006.4        
Jan 19 20:56 WNW 22 16.09 Cloudy OVC014 8 8     97% 5   1005.4 1005.7   0  
Jan 19 20:51 W 21 16.09 Cloudy OVC014 8 8     100% 5   1005.1        
Jan 19 20:03 W 18 16.09 Cloudy SCT022 OVC030 12 10     88%     1003.4        
Jan 19 19:56 W 24 16.09 Cloudy FEW020 OVC028 12 10     89%     1003.4 1003.6      
Jan 19 19:27 W 17 16.09 Cloudy BKN024 BKN040 OVC055 13 12     94%     1002.7        
Jan 19 18:56 WSW 24 16.09 Cloudy FEW024 BKN055 OVC070 13 13     97%     1002 1002.3 0    
Jan 19 18:35 WSW 22 16.09 Light Rain SCT022 BKN049 OVC065 13 13     100%     1001.7   0    
Jan 19 18:04 SW 8 16.09 Mostly Cloudy FEW018 BKN026 13 13     100%     1001        
Jan 19 17:56 SW 8 16.09 Partly Cloudy FEW020 SCT026 13 13     100%     1001 1001.1     2
Jan 19 17:40 SW 8 16.09 Mostly Cloudy BKN020 BKN026 13 13     100%     1000.7        
Jan 19 17:20 SW 5 16.09 Partly Cloudy FEW019 SCT026 14 14     100%     1000.3        
Jan 19 17:07 SW 15 16.09 Mostly Cloudy SCT019 BKN026 14 14     100%     1000        
Jan 19 16:56 SW 13 16.09 Partly Cloudy SCT019 14 14     100%     1000 1000.3 0    
Jan 19 16:10 SSW 11 16.09 Light Rain SCT011 BKN025 BKN100 14        %     1000.7   0    
Jan 19 15:56 SSW 8 16.09 Light Rain SCT016 BKN035 BKN050 14        %     1000.3 1000.5 0    
Jan 19 15:17 S 8 12.87 Rain SCT009 BKN038 OVC055 14        %     1000.3   0    
Jan 19 15:04 SSW 9 14.48 Rain SCT011 BKN034 OVC055 15        %     1000.7   0    
Jan 19 14:56 WSW 5 9.66 Heavy Rain BKN011 BKN020 OVC040 15        %     1000.7 1001.1 1 1  
Jan 19 14:38 SW 15 11.27 Heavy Rain BKN011 BKN019 OVC028 15 15     100%     1001.4   1    
Jan 19 14:18   11.27 Heavy Rain FEW009 BKN019 OVC025 17 17     100%     1000.7   0    
Jan 19 13:56 S 28 12.87 Rain SCT013 BKN018 OVC025 17 17     100%     1000.3 1000.4 0    
Jan 19 13:40 S 18 16.09 Rain BKN015 BKN020 OVC026 17 17     100%     1000.7   0    
Jan 19 12:56 S 21 16.09 Light Rain BKN014 BKN019 OVC026 17        %     1001.7 1002.1 0    
Jan 19 12:17 S 17 16.09 Light Rain SCT009 BKN015 OVC021 17 17     100%     1003.4   0    
Jan 19 11:56 SSW 11 11.27 Rain BKN013 BKN020 OVC029 17 17     100%     1004.1 1004.3 0   2
Jan 19 11:27 S 13 14.48 Light Rain BKN013 BKN017 BKN095 16 16     100%     1005.4   0    
Jan 19 10:56 S 8 16.09 Light Rain SCT009 BKN018 OVC050 16        %     1006.8 1007 0    
Jan 19 09:56 S 18 9.66 Rain and Fog/Mist OVC009 15 15     100%     1007.8 1007.9 0    
Jan 19 08:56 S 8 9.66 Rain BKN007 OVC012 14        %     1008.8 1009.1 1 1  
Jan 19 08:52 S 11 9.66 Heavy Rain BKN007 OVC012 14        %     1008.8   1    
Jan 19 07:56 SSE 17 16.09 Cloudy OVC005 14 14     100%     1009.2 1009.4 0    
Jan 19 07:20 SSE 11 16.09 Cloudy OVC005 13        %     1009.5   0    
Jan 19 07:08 SSE 13 11.27 Cloudy OVC007 13        %     1009.5   0    
Jan 19 06:56 5 3.22 Light Rain OVC007 12        %     1009.5 1009.8 0    
Jan 19 06:48 E 5 2.41 Light Rain OVC004 11        %     1009.5   0    
Jan 19 06:29 Calm 3.22 Light Rain OVC004 11        %     1009.8   0    
Jan 19 06:14 Calm 2.82 Heavy Rain OVC006 11        %     1009.8   0    
Jan 19 05:56 SSW 5 9.66 Light Rain OVC006 12        %     1009.8 1010.4 0   0
Jan 19 04:56 NE 13 6.44 Light Rain and Fog/Mist OVC008 11 11     100%     1010.2 1010.6 0    
Jan 19 04:34 NE 11 6.44 Fog/Mist OVC010 11 11     100%     1010.8        
Jan 19 03:56 E 5 9.66 Haze OVC006 11        %     1011.2 1011.6      
Jan 19 02:56 E 13 8.05 Haze BKN006 OVC010 11        %     1012.5 1012.9      
Jan 19 02:49 E 8 4.83 Fog/Mist BKN006 OVC010 10 9     94%     1012.9        
Jan 19 02:42 Calm 4.83 Fog/Mist BKN005 OVC010 9 9     100%     1013.2        
Jan 19 02:35 E 5 4.02 Fog/Mist OVC008 9 9     100% 9   1013.6        
Jan 19 01:56 Calm 6.44 Haze OVC008 9        %     1014.9 1015.2      
Jan 19 01:20 E 8 6.44 Fog/Mist BKN010 OVC035 9 9     100% 8   1015.2        
Jan 19 00:56 E 5 6.44 Haze SCT007 SCT027 BKN035 8        % 7   1015.6 1016.1      
Jan 19 00:31 Calm 4.83 Fog/Mist SCT007 SCT016 BKN028 8        %     1015.9        
Jan 19 00:15 NE 5 4.83 Fog/Mist SCT016 BKN030 8        % 7   1015.6        
Jan 19 00:03 NE 8 4.83 Fog/Mist BKN016 8 8     100% 7   1015.9        
Jan 18 23:56 Calm 4.83 Fog/Mist SCT018 8 8     100%     1015.9 1016.3      
Jan 18 23:51 Calm 4.83 Fog/Mist FEW020 8        %     1016.3        
Jan 18 23:38 ENE 5 4.02 Fog/Mist SCT024 8 8     100% 7   1016.3        
Jan 18 23:10 E 8 4.02 Fog/Mist FEW010 BKN020 OVC028 9        % 8   1016.3        
Jan 18 22:56 Calm 4.83 Fog/Mist FEW010 SCT020 OVC028 9        %     1016.6 1017      
May 15 08:56 SE 9 16.09 Mostly Clear FEW060 25 20     74%   25 1016.6 1016.4      
May 15 05:56 NNW 9 6.44 Fog/Mist CLR 18 18     100%     1016.3 1015.9      
May 15 03:56 Calm 12.87 Mostly Clear FEW070 19 19     100%     1015.6 1015.4      
May 14 13:56 N 8 16.09 Clear CLR 33 18     42%   34 1016.6 1016.2      
May 14 11:56 NNE 15 16.09 Mostly Clear FEW060 31 18     48%   32 1017.6 1017.4      
May 13 18:56 Calm 16.09 Clear CLR 29 19     55%   31 1016.9 1017      
May 13 17:56 WNW 9 16.09 Clear CLR 31 18     45%   32 1016.9 1016.9      
May 13 03:56 Calm 3.22 Fog/Mist CLR 14 14     100%     1019 1018.9      
May 13 00:56 Calm 8.05 Fog/Mist CLR 16 16     100%     1019 1018.9      
May 12 04:56 Calm 12.87 Clear CLR 15 15     100%     1020.7 1020.5      
May 12 03:56 W 5 12.87 Clear CLR 15 15     100%     1020 1019.8      
May 11 20:56 WSW 5 16.09 Clear CLR 21 19     87%     1019 1018.9      
Jun 12 04:56 Calm 16.09 Mostly Cloudy FEW028 BKN034 21 21     97%     1021 1021.9      
Jun 11 10:20 Calm 16.09 Mostly Cloudy BKN021 27 22     74%   29 1022        
Jun 10 21:56 Calm 16.09 Clear   21 18     81%     1019.7 1020.7      
Jun 10 20:56 Calm 16.09 Clear CLR 23 18     71%   24 1018.6 1019.8      
Jun 10 03:56 Calm 16.09 Mostly Clear FEW070 16 16     100%     1016.6 1017.7      
Jun 08 22:56 Calm 16.09 Mostly Clear FEW060 17 16     93%     1013.6 1014.9      
Jun 07 18:56 N 15 16.09 Clear CLR 25 13     47%   25 1010.8 1012.2      
Jun 07 15:56 NNE 22 16.09 Clear CLR 28 12     38%   27 1010.2 1011.2      
Jun 07 13:56 N 17 16.09 Clear CLR 27 16     49%   28 1010.2 1011.4      
Jun 07 11:56 NE 17 16.09 Clear CLR 26 17     58%   26 1010.8        
Jun 06 04:23 Calm 11.27 Partly Cloudy SCT003 21 21     100%     1009.2        
Jun 05 23:56 Calm 16.09 Light Rain CLR 22 21     96%   22 1010.5 1011.3 0